Time,TemperatureF,DewpointF,PressureIn,WindDirection,WindDirectionDegrees,WindSpeedMPH,WindSpeedGustMPH,Humidity,HourlyPrecipIn,Conditions,Clouds,dailyrainin,SoftwareType,DateUTC
2013-04-28 00:02:00,67.0,65.0,29.97,SE,140,12.0,-999.0,93,2.23,,,0.77,,2013-04-28 05:02:00,
2013-04-28 00:12:00,67.0,65.0,29.97,SE,140,12.0,-999.0,93,2.23,,,0.77,,2013-04-28 05:12:00,
2013-04-28 00:22:00,67.0,65.0,29.97,SE,146,7.0,-999.0,93,0.06,,,0.82,,2013-04-28 05:22:00,
2013-04-28 00:32:00,67.0,65.0,29.97,South,183,5.0,-999.0,93,0.00,,,0.00,,2013-04-28 05:32:00,
2013-04-28 00:42:00,67.0,65.0,29.97,South,183,5.0,-999.0,93,0.00,,,0.00,,2013-04-28 05:42:00,
2013-04-28 00:52:00,67.0,65.0,29.98,SW,229,1.0,-999.0,93,0.00,,,0.00,,2013-04-28 05:52:00,
2013-04-28 01:01:00,67.0,65.0,29.98,SW,229,1.0,-999.0,93,0.00,,,0.00,,2013-04-28 06:01:00,
2013-04-28 01:12:00,67.0,65.0,29.98,SW,229,1.0,-999.0,93,0.00,,,0.00,,2013-04-28 06:12:00,
2013-04-28 01:21:00,67.0,65.0,29.98,SW,229,2.0,-999.0,93,0.00,,,0.00,,2013-04-28 06:21:00,
2013-04-28 01:32:00,67.0,65.0,29.98,SSE,159,2.0,-999.0,93,0.00,,,0.00,,2013-04-28 06:32:00,
2013-04-28 01:42:00,67.0,65.0,29.98,SSE,159,2.0,-999.0,93,0.00,,,0.00,,2013-04-28 06:42:00,
2013-04-28 01:52:00,67.0,65.0,29.98,SE,138,2.0,-999.0,93,0.00,,,0.00,,2013-04-28 06:52:00,
2013-04-28 02:01:00,65.0,62.0,29.96,SSE,162,12.0,-999.0,91,0.00,,,0.00,,2013-04-28 07:01:00,
2013-04-28 02:11:00,65.0,62.0,29.96,SSE,162,12.0,-999.0,91,0.00,,,0.00,,2013-04-28 07:11:00,
2013-04-28 02:21:00,65.0,62.0,29.95,SSE,150,4.0,-999.0,91,0.00,,,0.00,,2013-04-28 07:21:00,
2013-04-28 02:31:00,64.0,61.0,29.95,SSE,150,2.0,-999.0,91,0.00,,,0.00,,2013-04-28 07:31:00,
2013-04-28 02:42:00,64.0,61.0,29.95,SSE,150,2.0,-999.0,91,0.00,,,0.00,,2013-04-28 07:42:00,
2013-04-28 02:52:00,64.0,61.0,29.95,NE,45,4.0,-999.0,90,0.00,,,0.00,,2013-04-28 07:52:00,
2013-04-28 03:02:00,64.0,61.0,29.94,NNE,22,3.0,-999.0,91,0.00,,,0.00,,2013-04-28 08:02:00,
2013-04-28 03:11:00,64.0,61.0,29.94,NNE,22,3.0,-999.0,91,0.00,,,0.00,,2013-04-28 08:11:00,
2013-04-28 03:21:00,64.0,61.0,29.95,NNE,21,4.0,-999.0,91,0.00,,,0.00,,2013-04-28 08:21:00,
2013-04-28 03:32:00,64.0,62.0,29.95,North,355,0.0,-999.0,92,0.00,,,0.00,,2013-04-28 08:32:00,
2013-04-28 03:42:00,64.0,62.0,29.95,North,355,0.0,-999.0,92,0.00,,,0.00,,2013-04-28 08:42:00,
2013-04-28 03:52:00,63.0,60.0,29.94,North,355,0.0,-999.0,91,0.00,,,0.00,,2013-04-28 08:52:00,
2013-04-28 04:01:00,63.0,61.0,29.95,North,355,2.0,-999.0,92,0.00,,,0.00,,2013-04-28 09:01:00,
2013-04-28 04:11:00,63.0,61.0,29.95,North,355,2.0,-999.0,92,0.00,,,0.00,,2013-04-28 09:11:00,
2013-04-28 04:21:00,62.0,60.0,29.95,North,355,1.0,-999.0,92,0.00,,,0.00,,2013-04-28 09:21:00,
2013-04-28 04:33:00,62.0,60.0,29.95,North,355,0.0,-999.0,93,0.00,,,0.00,,2013-04-28 09:33:00,
2013-04-28 04:42:00,62.0,60.0,29.95,North,355,0.0,-999.0,93,0.00,,,0.00,,2013-04-28 09:42:00,
2013-04-28 04:53:00,62.0,60.0,29.95,North,355,1.0,-999.0,93,0.00,,,0.00,,2013-04-28 09:53:00,
2013-04-28 05:03:00,62.0,60.0,29.96,North,355,3.0,-999.0,93,0.00,,,0.00,,2013-04-28 10:03:00,
2013-04-28 05:12:00,62.0,60.0,29.96,North,355,3.0,-999.0,93,0.00,,,0.00,,2013-04-28 10:12:00,
2013-04-28 05:22:00,62.0,60.0,29.96,North,355,0.0,-999.0,93,0.00,,,0.00,,2013-04-28 10:22:00,
2013-04-28 05:32:00,62.0,60.0,29.96,North,355,1.0,-999.0,93,0.00,,,0.00,,2013-04-28 10:32:00,
2013-04-28 05:42:00,62.0,60.0,29.96,North,355,1.0,-999.0,93,0.00,,,0.00,,2013-04-28 10:42:00,
2013-04-28 05:52:00,62.0,60.0,29.96,North,355,0.0,-999.0,93,0.00,,,0.00,,2013-04-28 10:52:00,
2013-04-28 06:02:00,61.0,59.0,29.96,North,355,0.0,-999.0,93,0.00,,,0.00,,2013-04-28 11:02:00,
2013-04-28 06:11:00,61.0,59.0,29.96,North,355,0.0,-999.0,93,0.00,,,0.00,,2013-04-28 11:11:00,
2013-04-28 06:22:00,61.0,59.0,29.97,North,355,0.0,-999.0,94,0.00,,,0.00,,2013-04-28 11:22:00,
2013-04-28 06:32:00,62.0,60.0,29.97,North,355,0.0,-999.0,94,0.00,,,0.00,,2013-04-28 11:32:00,
2013-04-28 06:42:00,62.0,60.0,29.97,North,355,0.0,-999.0,94,0.00,,,0.00,,2013-04-28 11:42:00,
2013-04-28 06:52:00,62.0,60.0,29.98,North,355,0.0,-999.0,94,0.00,,,0.00,,2013-04-28 11:52:00,
2013-04-28 07:01:00,62.0,60.0,29.97,North,355,2.0,-999.0,93,0.00,,,0.00,,2013-04-28 12:01:00,
2013-04-28 07:11:00,62.0,60.0,29.97,North,355,2.0,-999.0,93,0.00,,,0.00,,2013-04-28 12:11:00,
2013-04-28 07:21:00,61.0,59.0,29.97,North,355,2.0,-999.0,93,0.00,,,0.00,,2013-04-28 12:21:00,
2013-04-28 07:32:00,61.0,59.0,29.96,North,355,2.0,-999.0,94,0.00,,,0.00,,2013-04-28 12:32:00,
2013-04-28 07:42:00,61.0,59.0,29.96,North,355,2.0,-999.0,94,0.00,,,0.00,,2013-04-28 12:42:00,
2013-04-28 07:52:00,62.0,60.0,29.97,West,272,1.0,-999.0,94,0.00,,,0.00,,2013-04-28 12:52:00,
2013-04-28 08:02:00,63.0,61.0,29.97,North,355,0.0,-999.0,94,0.00,,,0.00,,2013-04-28 13:02:00,
2013-04-28 08:11:00,63.0,61.0,29.97,North,355,0.0,-999.0,94,0.00,,,0.00,,2013-04-28 13:11:00,
2013-04-28 08:21:00,64.0,62.0,29.98,North,355,0.0,-999.0,94,0.00,,,0.00,,2013-04-28 13:21:00,
2013-04-28 08:31:00,65.0,63.0,29.98,North,355,0.0,-999.0,93,0.00,,,0.00,,2013-04-28 13:31:00,
2013-04-28 08:42:00,65.0,63.0,29.98,North,355,0.0,-999.0,93,0.00,,,0.00,,2013-04-28 13:42:00,
2013-04-28 08:52:00,66.0,64.0,29.97,East,98,1.0,-999.0,92,0.00,,,0.00,,2013-04-28 13:52:00,
2013-04-28 09:01:00,67.0,65.0,29.96,NNW,342,0.0,-999.0,92,0.00,,,0.00,,2013-04-28 14:01:00,
2013-04-28 09:11:00,67.0,65.0,29.96,NNW,342,0.0,-999.0,92,0.00,,,0.00,,2013-04-28 14:11:00,
2013-04-28 09:21:00,68.0,64.0,29.97,WSW,244,0.0,-999.0,87,0.00,,,0.00,,2013-04-28 14:21:00,
2013-04-28 09:32:00,68.0,63.0,29.97,NE,42,2.0,-999.0,85,0.00,,,0.00,,2013-04-28 14:32:00,
2013-04-28 09:42:00,68.0,63.0,29.97,NE,42,2.0,-999.0,85,0.00,,,0.00,,2013-04-28 14:42:00,
2013-04-28 09:52:00,70.0,64.0,29.98,ENE,63,3.0,-999.0,81,0.00,,,0.00,,2013-04-28 14:52:00,
2013-04-28 10:01:00,71.0,64.0,29.98,SE,131,2.0,-999.0,79,0.00,,,0.00,,2013-04-28 15:01:00,
2013-04-28 10:12:00,71.0,64.0,29.98,SE,131,2.0,-999.0,79,0.00,,,0.00,,2013-04-28 15:12:00,
2013-04-28 10:21:00,71.0,64.0,29.97,ESE,107,2.0,-999.0,79,0.00,,,0.00,,2013-04-28 15:21:00,
2013-04-28 10:32:00,71.0,63.0,29.97,SSE,162,4.0,-999.0,77,0.00,,,0.00,,2013-04-28 15:32:00,
2013-04-28 10:42:00,71.0,63.0,29.97,SSE,162,4.0,-999.0,77,0.00,,,0.00,,2013-04-28 15:42:00,
2013-04-28 10:53:00,72.0,64.0,29.98,East,100,7.0,-999.0,77,0.00,,,0.00,,2013-04-28 15:53:00,
2013-04-28 11:03:00,72.0,63.0,29.97,East,99,8.0,-999.0,74,0.00,,,0.00,,2013-04-28 16:03:00,
2013-04-28 11:13:00,72.0,63.0,29.97,East,99,8.0,-999.0,74,0.00,,,0.00,,2013-04-28 16:13:00,
2013-04-28 11:23:00,73.0,63.0,29.97,SSE,150,5.0,-999.0,72,0.00,,,0.00,,2013-04-28 16:23:00,
2013-04-28 11:33:00,74.0,64.0,29.97,ESE,111,5.0,-999.0,71,0.00,,,0.00,,2013-04-28 16:33:00,
2013-04-28 11:42:00,74.0,64.0,29.97,ESE,111,5.0,-999.0,71,0.00,,,0.00,,2013-04-28 16:42:00,
2013-04-28 11:52:00,74.0,64.0,29.97,SE,124,6.0,-999.0,71,0.00,,,0.00,,2013-04-28 16:52:00,
2013-04-28 12:02:00,74.0,63.0,29.97,South,181,3.0,-999.0,68,0.00,,,0.00,,2013-04-28 17:02:00,
2013-04-28 12:12:00,74.0,63.0,29.97,South,181,3.0,-999.0,68,0.00,,,0.00,,2013-04-28 17:12:00,
2013-04-28 12:22:00,75.0,64.0,29.97,ESE,105,7.0,-999.0,68,0.00,,,0.00,,2013-04-28 17:22:00,
2013-04-28 12:32:00,75.0,64.0,29.96,East,86,6.0,-999.0,68,0.00,,,0.00,,2013-04-28 17:32:00,
2013-04-28 12:42:00,75.0,64.0,29.96,East,86,6.0,-999.0,68,0.00,,,0.00,,2013-04-28 17:42:00,
2013-04-28 12:52:00,76.0,64.0,29.96,SE,141,5.0,-999.0,67,0.00,,,0.00,,2013-04-28 17:52:00,
2013-04-28 13:02:00,76.0,65.0,29.96,SSE,156,8.0,-999.0,69,0.00,,,0.00,,2013-04-28 18:02:00,
2013-04-28 13:12:00,76.0,65.0,29.96,SSE,156,8.0,-999.0,69,0.00,,,0.00,,2013-04-28 18:12:00,
2013-04-28 13:22:00,76.0,64.0,29.96,SSE,151,14.0,-999.0,67,0.00,,,0.00,,2013-04-28 18:22:00,
2013-04-28 13:32:00,77.0,66.0,29.96,SE,142,7.0,-999.0,69,0.00,,,0.00,,2013-04-28 18:32:00,
2013-04-28 13:42:00,77.0,66.0,29.96,SE,142,7.0,-999.0,69,0.00,,,0.00,,2013-04-28 18:42:00,
2013-04-28 13:52:00,77.0,65.0,29.95,SE,146,12.0,-999.0,66,0.00,,,0.00,,2013-04-28 18:52:00,
2013-04-28 14:02:00,77.0,65.0,29.94,SSE,157,4.0,-999.0,67,0.00,,,0.00,,2013-04-28 19:02:00,
2013-04-28 14:11:00,77.0,65.0,29.94,SSE,157,4.0,-999.0,67,0.00,,,0.00,,2013-04-28 19:11:00,
2013-04-28 14:21:00,77.0,65.0,29.93,East,96,7.0,-999.0,66,0.00,,,0.00,,2013-04-28 19:21:00,
2013-04-28 14:31:00,77.0,64.0,29.92,ESE,120,5.0,-999.0,65,0.00,,,0.00,,2013-04-28 19:31:00,
2013-04-28 14:41:00,77.0,64.0,29.92,ESE,120,5.0,-999.0,65,0.00,,,0.00,,2013-04-28 19:41:00,
2013-04-28 14:52:00,78.0,64.0,29.92,ESE,117,5.0,-999.0,63,0.00,,,0.00,,2013-04-28 19:52:00,
2013-04-28 15:02:00,79.0,64.0,29.91,SE,131,0.0,-999.0,60,0.00,,,0.00,,2013-04-28 20:02:00,
2013-04-28 15:11:00,79.0,64.0,29.91,SE,131,0.0,-999.0,60,0.00,,,0.00,,2013-04-28 20:11:00,
2013-04-28 15:22:00,79.0,64.0,29.91,SE,131,0.0,-999.0,60,0.00,,,0.00,,2013-04-28 20:22:00,
2013-04-28 15:32:00,80.0,65.0,29.89,South,173,2.0,-999.0,60,0.00,,,0.00,,2013-04-28 20:32:00,
2013-04-28 15:42:00,80.0,65.0,29.89,South,173,2.0,-999.0,60,0.00,,,0.00,,2013-04-28 20:42:00,
2013-04-28 15:52:00,80.0,64.0,29.88,SE,141,7.0,-999.0,59,0.00,,,0.00,,2013-04-28 20:52:00,
2013-04-28 16:01:00,81.0,66.0,29.87,South,177,3.0,-999.0,60,0.00,,,0.00,,2013-04-28 21:01:00,
2013-04-28 16:11:00,81.0,66.0,29.87,South,177,3.0,-999.0,60,0.00,,,0.00,,2013-04-28 21:11:00,
2013-04-28 16:22:00,81.0,64.0,29.86,ESE,118,2.0,-999.0,57,0.00,,,0.00,,2013-04-28 21:22:00,
2013-04-28 16:32:00,81.0,64.0,29.85,SSE,160,3.0,-999.0,56,0.00,,,0.00,,2013-04-28 21:32:00,
2013-04-28 16:42:00,81.0,64.0,29.85,SSE,160,3.0,-999.0,56,0.00,,,0.00,,2013-04-28 21:42:00,
2013-04-28 16:53:00,81.0,63.0,29.84,SE,139,3.0,-999.0,54,0.00,,,0.00,,2013-04-28 21:53:00,
2013-04-28 17:03:00,80.0,63.0,29.83,South,184,3.0,-999.0,57,0.00,,,0.00,,2013-04-28 22:03:00,
2013-04-28 17:12:00,80.0,63.0,29.83,South,184,3.0,-999.0,57,0.00,,,0.00,,2013-04-28 22:12:00,
2013-04-28 17:22:00,82.0,65.0,29.83,SE,146,8.0,-999.0,56,0.00,,,0.00,,2013-04-28 22:22:00,
2013-04-28 17:33:00,82.0,64.0,29.83,South,184,4.0,-999.0,55,0.00,,,0.00,,2013-04-28 22:33:00,
2013-04-28 17:42:00,82.0,64.0,29.83,South,184,4.0,-999.0,55,0.00,,,0.00,,2013-04-28 22:42:00,
2013-04-28 17:52:00,81.0,64.0,29.83,ESE,123,4.0,-999.0,57,0.00,,,0.00,,2013-04-28 22:52:00,
2013-04-28 18:02:00,81.0,64.0,29.83,SE,138,5.0,-999.0,57,0.00,,,0.00,,2013-04-28 23:02:00,
2013-04-28 18:12:00,81.0,64.0,29.83,SE,138,5.0,-999.0,57,0.00,,,0.00,,2013-04-28 23:12:00,
2013-04-28 18:22:00,81.0,64.0,29.83,SE,142,3.0,-999.0,56,0.00,,,0.00,,2013-04-28 23:22:00,
2013-04-28 18:32:00,81.0,63.0,29.83,ESE,108,2.0,-999.0,54,0.00,,,0.00,,2013-04-28 23:32:00,
2013-04-28 18:42:00,81.0,63.0,29.83,ESE,108,2.0,-999.0,54,0.00,,,0.00,,2013-04-28 23:42:00,
2013-04-28 18:52:00,81.0,63.0,29.83,SE,134,9.0,-999.0,55,0.00,,,0.00,,2013-04-28 23:52:00,
2013-04-28 19:01:00,81.0,64.0,29.83,SE,129,4.0,-999.0,56,0.00,,,0.00,,2013-04-29 00:01:00,
2013-04-28 19:11:00,81.0,64.0,29.83,SE,129,4.0,-999.0,56,0.00,,,0.00,,2013-04-29 00:11:00,
2013-04-28 19:22:00,80.0,62.0,29.83,ESE,120,5.0,-999.0,55,0.00,,,0.00,,2013-04-29 00:22:00,
2013-04-28 19:32:00,79.0,62.0,29.83,SE,142,7.0,-999.0,57,0.00,,,0.00,,2013-04-29 00:32:00,
2013-04-28 19:41:00,79.0,62.0,29.83,SE,142,7.0,-999.0,57,0.00,,,0.00,,2013-04-29 00:41:00,
2013-04-28 19:52:00,79.0,62.0,29.83,ESE,119,4.0,-999.0,56,0.00,,,0.00,,2013-04-29 00:52:00,
2013-04-28 20:01:00,79.0,62.0,29.83,ESE,119,4.0,-999.0,56,0.00,,,0.00,,2013-04-29 01:01:00,
2013-04-28 20:12:00,76.0,65.0,29.85,SSE,156,3.0,-999.0,68,0.00,,,0.00,,2013-04-29 01:12:00,
2013-04-28 20:21:00,76.0,65.0,29.85,SSE,156,3.0,-999.0,68,0.00,,,0.00,,2013-04-29 01:21:00,
2013-04-28 20:32:00,75.0,65.0,29.85,SE,124,2.0,-999.0,70,0.00,,,0.00,,2013-04-29 01:32:00,
2013-04-28 20:42:00,75.0,65.0,29.85,SE,124,2.0,-999.0,70,0.00,,,0.00,,2013-04-29 01:42:00,
2013-04-28 20:52:00,74.0,64.0,29.85,ESE,117,1.0,-999.0,72,0.00,,,0.00,,2013-04-29 01:52:00,
2013-04-28 21:02:00,73.0,65.0,29.86,ESE,117,1.0,-999.0,75,0.00,,,0.00,,2013-04-29 02:02:00,
2013-04-28 21:11:00,73.0,65.0,29.86,ESE,117,1.0,-999.0,75,0.00,,,0.00,,2013-04-29 02:11:00,
2013-04-28 21:21:00,72.0,64.0,29.87,ESE,117,2.0,-999.0,77,0.00,,,0.00,,2013-04-29 02:21:00,
2013-04-28 21:32:00,72.0,65.0,29.88,ESE,117,0.0,-999.0,78,0.00,,,0.00,,2013-04-29 02:32:00,
2013-04-28 21:41:00,72.0,65.0,29.88,ESE,117,0.0,-999.0,78,0.00,,,0.00,,2013-04-29 02:41:00,
2013-04-28 21:52:00,72.0,65.0,29.88,SE,142,4.0,-999.0,79,0.00,,,0.00,,2013-04-29 02:52:00,
2013-04-28 22:01:00,72.0,66.0,29.89,SE,146,4.0,-999.0,81,0.00,,,0.00,,2013-04-29 03:01:00,
2013-04-28 22:12:00,72.0,66.0,29.89,SE,146,4.0,-999.0,81,0.00,,,0.00,,2013-04-29 03:12:00,
2013-04-28 22:21:00,71.0,65.0,29.90,SE,146,2.0,-999.0,82,0.00,,,0.00,,2013-04-29 03:21:00,
2013-04-28 22:33:00,71.0,66.0,29.90,SE,146,0.0,-999.0,84,0.00,,,0.00,,2013-04-29 03:33:00,
2013-04-28 22:42:00,71.0,66.0,29.90,SE,146,0.0,-999.0,84,0.00,,,0.00,,2013-04-29 03:42:00,
2013-04-28 22:53:00,70.0,65.0,29.90,SE,146,0.0,-999.0,85,0.00,,,0.00,,2013-04-29 03:53:00,
2013-04-28 23:03:00,69.0,65.0,29.91,SE,146,0.0,-999.0,86,0.00,,,0.00,,2013-04-29 04:03:00,
2013-04-28 23:13:00,69.0,65.0,29.91,SE,146,0.0,-999.0,86,0.00,,,0.00,,2013-04-29 04:13:00,
2013-04-28 23:23:00,69.0,65.0,29.90,SE,146,0.0,-999.0,87,0.00,,,0.00,,2013-04-29 04:23:00,
2013-04-28 23:33:00,69.0,65.0,29.90,SE,146,1.0,-999.0,88,0.00,,,0.00,,2013-04-29 04:33:00,
2013-04-28 23:43:00,69.0,65.0,29.90,SE,146,1.0,-999.0,88,0.00,,,0.00,,2013-04-29 04:43:00,
2013-04-28 23:52:00,68.0,65.0,29.90,SE,146,0.0,-999.0,89,0.00,,,0.00,,2013-04-29 04:52:00,